Location: Township of Marena
(38.1747°N, 99.6798°W)
Time: 04:58:58
(UTC+00:00)

Cosmos 1892 - Pass Details

Date: 26 October 2020
Orbit: 504 x 523 km, 82.5° (Epoch: 25 November)

Event Time Altitude Azimuth Distance (km) Brightness Sun altitude
Rises 01:53:38 0° 344° (NNW) 2,660 6.6 -25.5°
Reaches altitude 10° 01:55:53 10° 336° (NNW) 1,768 5.7 -26.0°
Maximum altitude 01:59:29 38° 268° (W) 808 4.1 -26.7°
Enters shadow 02:01:15 24° 216° (SW) 1,111 4.6 -27.0°
